Regional Weather Roundup
Issued by NWS

Home | Current Version | Previous Version | Graphics & Text | Print | Product List | Glossary On
Versions: 1 2 3 4 5 6 7 8 9 10 11 12 13 14 15 16 17 18 19 20 21 22 23 24 25 26 27 28 29 30 31 32 33 34 35 36 37 38 39 40 41 42 43 44 45 46 47 48 49 50
000
ASUS44 KMEG 031210
RWRTN
TENNESSEE HOURLY STATE WEATHER ROUNDUP
NATIONAL WEATHER SERVICE MEMPHIS TN
700 AM CDT MON AUG 03 2015

TNZ002-004-019-021-049-052-054-088>092-031300-
WEST TENNESSEE

CITY           SKY/WX    TMP DP  RH WIND       PRES   REMARKS
MEMPHIS INTL   PTCLDY    76  68  76 CALM      29.93R
NWS MEMPHIS      N/A     71 N/A N/A MISG        N/A
JACKSON        CLEAR     69  66  90 CALM      29.94R
DYERSBURG        N/A    N/A N/A N/A MISG        N/A
PARIS          SUNNY     70  66  88 SW3       29.93R
LEXINGTON      SUNNY     68  68 100 CALM      29.94R
$$

TNZ008-025-027-028-033-062-065-066-031300-
NORTH MIDDLE TENNESSEE

CITY           SKY/WX    TMP DP  RH WIND       PRES   REMARKS
NASHVILLE      MOSUNNY   67  65  93 CALM      29.95R
CLARKSVILLE    SUNNY     70  66  87 SW3       29.92R
SMYRNA         SUNNY     64  63  97 CALM      29.96R
CROSSVILLE     MOSUNNY   62  59  90 CALM      30.01R
$$

TNZ061-075-076-078-094-096-097-031300-
SOUTH MIDDLE TENNESSEE

CITY           SKY/WX    TMP DP  RH WIND       PRES   REMARKS
FAYETTEVILLE   SUNNY     63  61  94 NE3       29.96S
TULLAHOMA      SUNNY     61  55  82 CALM      29.98R
WINCHESTER     SUNNY     61  57  88 CALM      29.97S
COLUMBIA       SUNNY     64  64 100 CALM      29.95R
SHELBYVILLE    SUNNY     63  63 100 CALM      29.98R
$$

TNZ017-018-042-046-047-031300-
NORTHEAST TENNESSEE

CITY           SKY/WX    TMP DP  RH WIND       PRES   REMARKS
TRI CITIES     MOSUNNY   65  61  87 CALM      29.99R
ELIZABETHTON   SUNNY     64  57  77 CALM      29.99R
$$

TNZ012-013-036-069-073-074-031300-
CENTRAL EAST TENNESSEE

CITY           SKY/WX    TMP DP  RH WIND       PRES   REMARKS
KNOXVILLE      PTSUNNY   68  66  93 CALM      29.96R
OAK RIDGE      MOSUNNY   66  62  87 CALM      29.98R
GATLINBURG     SUNNY     66  63  88 CALM      29.96R
MORRISTOWN     SUNNY     66  63  88 CALM      29.98R
$$

TNZ083-085-099-031300-
SOUTHEAST TENNESSEE

CITY           SKY/WX    TMP DP  RH WIND       PRES   REMARKS
CHATTANOOGA    MOSUNNY   70  64  81 CALM      29.95R
$$

SKY/WX REPORTED AS FAIR MEANS FEW OR NO CLOUDS BELOW
12 THOUSAND FEET.




USA.gov is the U.S. government's official web portal to all federal, state and local government web resources and services.